TimeEST,TemperatureF,Dew PointF,Humidity,Sea Level PressureIn,VisibilityMPH,Wind Direction,Wind SpeedMPH,Gust SpeedMPH,PrecipitationIn,Events,Conditions,WindDirDegrees,DateUTC
12:15 AM,57.2,57.2,100,30.14,0.8,SSE,5.8,-,N/A,,Overcast,160,2013-01-13 05:15:00
12:35 AM,57.2,57.2,100,30.14,0.8,Calm,Calm,-,N/A,,Overcast,0,2013-01-13 05:35:00
12:55 AM,57.2,57.2,100,30.14,0.5,SE,4.6,-,N/A,,Overcast,130,2013-01-13 05:55:00
1:15 AM,57.2,57.2,100,30.13,0.5,SSE,5.8,-,N/A,,Overcast,160,2013-01-13 06:15:00
1:35 AM,57.2,57.2,100,30.13,0.5,SSE,3.5,-,N/A,,Overcast,160,2013-01-13 06:35:00
1:55 AM,55.4,55.4,100,30.13,1.0,South,6.9,-,N/A,,Overcast,170,2013-01-13 06:55:00
2:15 AM,57.2,57.2,100,30.14,0.5,SSE,4.6,-,N/A,,Overcast,160,2013-01-13 07:15:00
2:35 AM,55.4,55.4,100,30.14,1.0,South,5.8,-,N/A,,Overcast,170,2013-01-13 07:35:00
2:55 AM,55.4,55.4,100,30.13,0.5,SSE,5.8,-,N/A,,Overcast,160,2013-01-13 07:55:00
3:15 AM,55.4,55.4,100,30.13,0.2,South,4.6,-,N/A,,Overcast,180,2013-01-13 08:15:00
3:35 AM,55.4,55.4,100,30.13,0.5,South,6.9,-,N/A,,Overcast,180,2013-01-13 08:35:00
3:55 AM,55.4,55.4,100,30.13,0.5,South,3.5,-,N/A,,Overcast,190,2013-01-13 08:55:00
4:15 AM,55.4,55.4,100,30.12,0.2,SSE,3.5,-,N/A,,Overcast,150,2013-01-13 09:15:00
4:35 AM,55.4,55.4,100,30.12,1.5,South,4.6,-,N/A,,Overcast,170,2013-01-13 09:35:00
4:55 AM,55.4,55.4,100,30.12,4.0,SSE,3.5,-,N/A,,Overcast,160,2013-01-13 09:55:00
5:15 AM,55.4,55.4,100,30.11,0.5,SSE,5.8,-,N/A,,Overcast,150,2013-01-13 10:15:00
5:35 AM,55.4,55.4,100,30.12,0.2,SSE,4.6,-,N/A,,Overcast,150,2013-01-13 10:35:00
5:55 AM,55.4,55.4,100,30.12,0.5,SSE,4.6,-,N/A,,Overcast,160,2013-01-13 10:55:00
6:15 AM,55.4,55.4,100,30.12,1.8,SSE,5.8,-,N/A,,Overcast,160,2013-01-13 11:15:00
6:35 AM,55.4,55.4,100,30.13,0.5,South,3.5,-,N/A,,Overcast,170,2013-01-13 11:35:00
6:55 AM,55.4,55.4,100,30.13,0.2,South,5.8,-,N/A,,Overcast,170,2013-01-13 11:55:00
7:15 AM,53.6,53.6,100,30.13,0.8,South,5.8,-,N/A,,Overcast,180,2013-01-13 12:15:00
7:35 AM,53.6,53.6,100,30.14,0.5,South,5.8,-,N/A,,Overcast,170,2013-01-13 12:35:00
7:55 AM,53.6,53.6,100,30.14,0.2,SSE,6.9,-,N/A,,Overcast,160,2013-01-13 12:55:00
8:15 AM,53.6,53.6,100,30.14,0.2,SSE,5.8,-,N/A,,Overcast,160,2013-01-13 13:15:00
8:35 AM,53.6,53.6,100,30.14,0.2,South,6.9,-,N/A,,Overcast,180,2013-01-13 13:35:00
8:55 AM,55.4,55.4,100,30.15,0.5,SSE,5.8,-,N/A,,Overcast,160,2013-01-13 13:55:00
9:15 AM,55.4,55.4,100,30.15,0.8,South,6.9,-,N/A,,Overcast,170,2013-01-13 14:15:00
9:35 AM,55.4,55.4,100,30.15,0.5,South,5.8,-,N/A,,Overcast,170,2013-01-13 14:35:00
9:55 AM,55.4,55.4,100,30.15,0.8,SSE,5.8,-,N/A,,Overcast,160,2013-01-13 14:55:00
10:15 AM,55.4,55.4,100,30.15,1.0,SSE,6.9,-,N/A,,Overcast,160,2013-01-13 15:15:00
10:35 AM,55.4,55.4,100,30.15,1.0,SSE,6.9,-,N/A,,Overcast,150,2013-01-13 15:35:00
10:55 AM,57.2,57.2,100,30.14,2.0,SSE,4.6,-,N/A,,Overcast,160,2013-01-13 15:55:00
11:15 AM,57.2,57.2,100,30.14,7.0,South,3.5,-,N/A,,Overcast,190,2013-01-13 16:15:00
11:35 AM,57.2,57.2,100,30.13,10.0,SSW,4.6,-,N/A,,Overcast,210,2013-01-13 16:35:00
11:55 AM,57.2,57.2,100,30.12,7.0,SSW,4.6,-,N/A,,Overcast,200,2013-01-13 16:55:00
12:15 PM,59.0,59.0,100,30.12,10.0,SSW,3.5,-,N/A,,Overcast,200,2013-01-13 17:15:00
12:35 PM,60.8,60.8,100,30.10,10.0,South,5.8,-,N/A,,Overcast,170,2013-01-13 17:35:00
1:15 PM,60.8,60.8,100,30.09,10.0,South,5.8,-,N/A,,Overcast,170,2013-01-13 18:15:00
1:55 PM,62.6,62.6,100,30.09,7.0,South,3.5,-,N/A,,Overcast,180,2013-01-13 18:55:00
2:15 PM,62.6,62.6,100,30.08,10.0,South,5.8,-,N/A,,Overcast,190,2013-01-13 19:15:00
2:35 PM,64.4,64.4,100,30.09,10.0,South,5.8,-,N/A,,Overcast,190,2013-01-13 19:35:00
2:55 PM,64.4,64.4,100,30.09,10.0,South,5.8,-,N/A,,Overcast,190,2013-01-13 19:55:00
3:15 PM,66.2,64.4,94,30.09,10.0,South,4.6,-,N/A,,Scattered Clouds,170,2013-01-13 20:15:00
3:35 PM,66.2,64.4,94,30.09,10.0,SSE,3.5,-,N/A,,Clear,160,2013-01-13 20:35:00
3:55 PM,66.2,64.4,94,30.09,10.0,SSE,4.6,-,N/A,,Clear,160,2013-01-13 20:55:00
4:15 PM,66.2,64.4,94,30.10,10.0,South,3.5,-,N/A,,Clear,180,2013-01-13 21:15:00
4:35 PM,64.4,64.4,100,30.10,10.0,South,5.8,-,N/A,,Clear,170,2013-01-13 21:35:00
4:55 PM,64.4,64.4,100,30.10,10.0,SSE,5.8,-,N/A,,Clear,160,2013-01-13 21:55:00
5:15 PM,62.6,62.6,100,30.10,10.0,South,5.8,-,N/A,,Clear,170,2013-01-13 22:15:00
5:35 PM,60.8,60.8,100,30.10,10.0,South,4.6,-,N/A,,Clear,170,2013-01-13 22:35:00
5:55 PM,60.8,60.8,100,30.10,7.0,South,3.5,-,N/A,,Clear,170,2013-01-13 22:55:00
6:15 PM,60.8,60.8,100,30.10,7.0,SSE,5.8,-,N/A,,Clear,160,2013-01-13 23:15:00
6:35 PM,60.8,60.8,100,30.09,7.0,SSE,4.6,-,N/A,,Clear,160,2013-01-13 23:35:00
6:55 PM,60.8,60.8,100,30.08,7.0,SSE,4.6,-,N/A,,Clear,160,2013-01-13 23:55:00
7:15 PM,60.8,60.8,100,30.07,7.0,SSE,5.8,-,N/A,,Clear,160,2013-01-14 00:15:00
7:35 PM,60.8,60.8,100,30.07,7.0,South,6.9,-,N/A,,Clear,180,2013-01-14 00:35:00
7:55 PM,62.6,62.6,100,30.06,7.0,South,5.8,-,N/A,,Clear,170,2013-01-14 00:55:00
8:15 PM,62.6,62.6,100,30.07,7.0,South,5.8,-,N/A,,Clear,180,2013-01-14 01:15:00
8:35 PM,62.6,62.6,100,30.06,10.0,South,5.8,-,N/A,,Clear,190,2013-01-14 01:35:00
8:55 PM,62.6,62.6,100,30.06,10.0,South,8.1,-,N/A,,Clear,180,2013-01-14 01:55:00
9:15 PM,62.6,62.6,100,30.06,10.0,South,6.9,-,N/A,,Clear,180,2013-01-14 02:15:00
9:35 PM,62.6,62.6,100,30.07,10.0,South,5.8,-,N/A,,Clear,180,2013-01-14 02:35:00
9:55 PM,60.8,60.8,100,30.07,10.0,South,5.8,-,N/A,,Clear,180,2013-01-14 02:55:00
10:15 PM,60.8,60.8,100,30.07,7.0,South,5.8,-,N/A,,Clear,170,2013-01-14 03:15:00
10:35 PM,60.8,60.8,100,30.08,7.0,South,4.6,-,N/A,,Clear,190,2013-01-14 03:35:00
10:55 PM,60.8,60.8,100,30.08,10.0,South,5.8,-,N/A,,Clear,170,2013-01-14 03:55:00
11:35 PM,59.0,59.0,100,30.08,4.0,South,4.6,-,N/A,,Clear,170,2013-01-14 04:35:00
11:55 PM,60.8,60.8,100,30.08,10.0,SSW,4.6,-,N/A,,Clear,200,2013-01-14 04:55:00